Location: Musselshell
(46.5176°N, 108.0911°W)
Time: 13:22:41
(UTC+00:00)

AO-73 - Visible Passes

Search period start: 25 June 2022 00:00
Search period end: 05 July 2022 00:00
Orbit: 578 x 658 km, 97.6° (Epoch: 24 June)

Date Brightness Start Highest point End Pass type
(mag) Time Alt. Az. Time Alt. Az. Time Alt. Az.
25 Jun ? 10:24:22 10° NE 10:27:50 22° E 10:31:19 10° SE visible
26 Jun ? 10:40:45 10° NNE 10:44:43 32° E 10:48:44 10° SSE visible
29 Jun ? 09:56:53 10° ENE 09:58:30 12° E 10:00:07 10° ESE visible
30 Jun ? 10:12:28 10° NE 10:15:27 17° E 10:18:27 10° SE visible
01 Jul ? 10:28:39 10° NE 10:32:21 25° E 10:36:04 10° SSE visible
02 Jul ? 10:45:04 10° NNE 10:49:13 36° E 10:53:23 10° SSE visible
